Location: Balsareny
(41.8670°N, 1.8830°E)
Time: 00:04:08
(UTC+01:00)

ISS - Pass Details

Date: 09 December 2021
Orbit: 413 x 422 km, 51.6° (Epoch: 25 January)

Event Time Altitude Azimuth Distance (km) Brightness Sun altitude
Rises 18:40:57 0° 293° (WNW) 2,381 0.9 -14.3°
Reaches altitude 10° 18:43:25 10° 277° (W) 1,509 0.1 -14.8°
Maximum altitude 18:45:59 20° 227° (SW) 1,027 -1.0 -15.2°
Drops below altitude 10° 18:48:33 10° 177° (S) 1,496 -0.8 -15.7°
Enters shadow 18:53:46 -8° 152° (SSE) 3,438 0.8 -16.6°
